IK0XIH-3 Latina IT current weather conditions

sailwx.info

Wind from 242

Air temperature 30.0° C
Dewpoint 19.4° C

Last reported at 2020-Aug-13 17:03 UTC.
Time now 2020-Aug-13 18:00 UTC

Location: N 41°30' E 012°55'.
View on Google Maps.

See reports from other nearby stations

  
Tides and Currents Weather Stations Pressure Air Temp Water Temp Dewpoint Dewpoint Depression Visibility Wind Speed Wind Dir Waves Ship Positions
date/time (UTC)wind fromknots sea level pressurealtimeterstation pressurevisibilityair tempwater tempwave heightnotes
2020-Aug-13 17:03 242 30.0
2020-Aug-13 16:58 265 30.0
2020-Aug-13 16:53 243 30.6
2020-Aug-13 16:48 260 30.6
2020-Aug-13 16:43 259 30.6
2020-Aug-13 16:38 244 30.6
2020-Aug-13 16:33 242 31.1
2020-Aug-13 16:28 266 31.1
2020-Aug-13 16:23 252 31.7
2020-Aug-13 16:18 287 31.7
2020-Aug-13 16:13 270 32.2
2020-Aug-13 16:08 229 32.2
2020-Aug-13 16:03 241 32.2
2020-Aug-13 15:58 251 32.2
2020-Aug-13 15:53 238 0 gusting 2 32.2
2020-Aug-13 15:48 251 32.8
2020-Aug-13 15:43 263 32.8
2020-Aug-13 15:38 249 32.8
2020-Aug-13 15:33 261 32.8
2020-Aug-13 15:28 231 32.8
2020-Aug-13 15:23 237 32.2
2020-Aug-13 15:18 239 32.8
2020-Aug-13 15:13 226 32.8
2020-Aug-13 15:08 267 32.8
2020-Aug-13 15:03 230 32.2
2020-Aug-13 14:58 252 32.2
2020-Aug-13 14:53 250 32.2
2020-Aug-13 14:48 256 32.2
2020-Aug-13 14:43 270 32.2
2020-Aug-13 14:38 231 32.2
2020-Aug-13 14:33 238 32.8
2020-Aug-13 14:28 245 4 gusting 7 32.2
2020-Aug-13 14:23 263 32.8
2020-Aug-13 14:18 223 32.8
2020-Aug-13 14:13 267 12 gusting 13 32.8
2020-Aug-13 14:08 255 2 gusting 12 32.2
2020-Aug-13 14:03 270 7 gusting 11 32.2
2020-Aug-13 13:58 275 32.8
2020-Aug-13 13:53 249 32.8
2020-Aug-13 13:48 254 0 gusting 12 32.2
2020-Aug-13 13:43 252 10 gusting 13 32.8
2020-Aug-13 13:38 278 6 gusting 10 32.8
2020-Aug-13 13:33 270 10 gusting 12 32.8
2020-Aug-13 13:28 240 9 gusting 10 32.8
2020-Aug-13 13:23 229 0 gusting 9 32.8
2020-Aug-13 13:18 236 32.8
2020-Aug-13 13:13 227 0 gusting 12 32.8
2020-Aug-13 13:08 244 32.8
2020-Aug-13 13:03 264 0 gusting 9 32.8
2020-Aug-13 12:58 223 32.8
2020-Aug-13 12:53 206 32.8
2020-Aug-13 12:48 186 33.3
2020-Aug-13 12:43 230 32.8
2020-Aug-13 12:38 257 33.3
2020-Aug-13 12:33 223 33.3
2020-Aug-13 12:28 190 32.8
2020-Aug-13 12:23 270 32.8
2020-Aug-13 12:18 279 32.8
2020-Aug-13 12:13 248 32.8
2020-Aug-13 12:08 233 32.8
2020-Aug-13 12:03 223 33.3
2020-Aug-13 11:58 248 32.8
2020-Aug-13 11:53 289 32.2
2020-Aug-13 11:48 270 31.7
2020-Aug-13 11:43 240 32.2
2020-Aug-13 11:38 230 0 gusting 9 32.2
2020-Aug-13 11:33 229 32.2
2020-Aug-13 11:28 235 7 gusting 10 32.2
2020-Aug-13 11:23 242 32.2
2020-Aug-13 11:18 232 32.8
2020-Aug-13 11:13 234 32.8
2020-Aug-13 11:08 300 32.8
2020-Aug-13 11:03 242 32.8
2020-Aug-13 10:58 263 0 gusting 9 32.8
2020-Aug-13 10:53 254 2 gusting 7 32.2
2020-Aug-13 10:48 240 32.2
2020-Aug-13 10:43 250 4 gusting 6 32.8
2020-Aug-13 10:38 257 32.2
2020-Aug-13 10:33 213 6 gusting 6 32.2
2020-Aug-13 10:28 251 32.2
2020-Aug-13 10:23 239 32.2
2020-Aug-13 10:18 238 32.2
2020-Aug-13 10:13 250 31.7
2020-Aug-13 10:08 223 31.7
2020-Aug-13 10:03 234 31.7
2020-Aug-13 09:58 230 31.7
2020-Aug-13 09:53 198 31.7
2020-Aug-13 09:48 261 31.7
2020-Aug-13 09:43 252 31.7
2020-Aug-13 09:38 232 2 gusting 2 31.7
2020-Aug-13 09:33 248 31.1
2020-Aug-13 09:28 257 31.1
2020-Aug-13 09:23 265 31.7
2020-Aug-13 09:18 224 31.7
2020-Aug-13 09:13 188 31.7
2020-Aug-13 09:08 254 32.2
2020-Aug-13 09:03 273 31.7
2020-Aug-13 08:58 257 30.6
2020-Aug-13 08:53 230 30.6
2020-Aug-13 08:48 252 30.6
2020-Aug-13 08:43 252 30.6
2020-Aug-13 08:38 221 30.0
2020-Aug-13 08:33 284 30.0
2020-Aug-13 08:28 184 30.0
2020-Aug-13 08:23 116 29.4
2020-Aug-13 08:18 169 29.4
2020-Aug-13 08:13 124 29.4
2020-Aug-13 08:08 180 29.4
2020-Aug-13 08:03 157 28.9
2020-Aug-13 07:58 173 28.9
2020-Aug-13 07:53 103 28.9
2020-Aug-13 07:48 128 28.9
2020-Aug-13 07:43 083 28.3
2020-Aug-13 07:38 122 27.8
2020-Aug-13 07:33 086 27.8
2020-Aug-13 07:28 108 27.2
2020-Aug-13 07:23 136 27.2
2020-Aug-13 07:18 090 26.7
2020-Aug-13 07:13 078 26.7
2020-Aug-13 07:08 071 26.7
2020-Aug-13 07:03 242 26.7
2020-Aug-13 06:58 246 26.7
2020-Aug-13 06:53 246 26.1
2020-Aug-13 06:48 246 26.1
2020-Aug-13 06:43 248 26.1
2020-Aug-13 06:38 248 26.1
2020-Aug-13 06:33 248 25.6
2020-Aug-13 06:28 248 24.4
2020-Aug-13 06:23 248 23.3
2020-Aug-13 06:18 248 22.8
2020-Aug-13 06:13 248 22.8
2020-Aug-13 06:08 248 22.8
2020-Aug-13 06:03 248 22.2
2020-Aug-13 05:58 034 22.2
2020-Aug-13 05:53 085 21.7
2020-Aug-13 05:48 085 21.1
2020-Aug-13 05:43 085 21.1
2020-Aug-13 05:38 085 21.1
2020-Aug-13 05:33 085 20.6
2020-Aug-13 05:28 085 20.0
2020-Aug-13 05:23 085 18.9
2020-Aug-13 05:18 085 18.9
2020-Aug-13 05:13 085 18.9
2020-Aug-13 05:08 085 18.3
2020-Aug-13 05:03 085 18.3
2020-Aug-13 04:58 085 18.3
2020-Aug-13 04:53 085 18.3
2020-Aug-13 04:48 085 18.3
2020-Aug-13 04:43 085 18.3
2020-Aug-13 04:38 085 18.3
2020-Aug-13 04:33 085 18.3
2020-Aug-13 04:28 085 18.3
2020-Aug-13 04:23 085 18.3
2020-Aug-13 04:18 086 18.3
2020-Aug-13 04:13 086 18.3
2020-Aug-13 04:08 086 18.3
2020-Aug-13 04:03 086 18.3
2020-Aug-13 03:58 086 18.3
2020-Aug-13 03:53 086 18.3
2020-Aug-13 03:48 323 18.3
2020-Aug-13 03:43 321 18.3
2020-Aug-13 03:38 321 18.3
2020-Aug-13 03:33 321 18.3
2020-Aug-13 03:28 321 18.3
2020-Aug-13 03:23 045 18.3
2020-Aug-13 03:18 045 18.3
2020-Aug-13 03:13 045 18.3
2020-Aug-13 03:08 045 18.9
2020-Aug-13 03:03 045 18.9
2020-Aug-13 02:58 045 18.9
2020-Aug-13 02:53 045 18.9
2020-Aug-13 02:48 045 18.9
2020-Aug-13 02:43 045 18.9
2020-Aug-13 02:38 045 18.9
2020-Aug-13 02:33 045 18.9
2020-Aug-13 02:28 034 18.9
2020-Aug-13 02:23 319 18.9
2020-Aug-13 02:18 319 18.9
2020-Aug-13 02:13 319 19.4
2020-Aug-13 02:08 319 19.4
2020-Aug-13 02:03 319 19.4
2020-Aug-13 01:58 307 19.4
2020-Aug-13 01:53 307 19.4
2020-Aug-13 01:48 307 19.4
2020-Aug-13 01:43 084 19.4
2020-Aug-13 01:38 084 19.4
2020-Aug-13 01:33 084 19.4
2020-Aug-13 01:28 084 19.4
2020-Aug-13 01:23 084 20.0
2020-Aug-13 01:18 084 20.0
2020-Aug-13 01:13 084 20.0
2020-Aug-13 01:08 084 20.0
2020-Aug-13 01:03 084 20.0
2020-Aug-13 00:58 100 20.0
2020-Aug-13 00:53 190 20.0
2020-Aug-13 00:48 190 20.6
2020-Aug-13 00:43 190 20.6
2020-Aug-13 00:38 190 20.6
2020-Aug-13 00:33 190 20.6
2020-Aug-13 00:28 190 20.6
2020-Aug-13 00:23 190 21.1
2020-Aug-13 00:18 190 21.1
2020-Aug-13 00:13 190 21.1
2020-Aug-13 00:08 063 20.6
2020-Aug-13 00:03 063 20.6
2020-Aug-12 23:58 063 20.6
2020-Aug-12 23:53 063 20.6
2020-Aug-12 23:48 063 20.6
2020-Aug-12 23:43 063 21.1
2020-Aug-12 23:38 063 21.1
2020-Aug-12 23:33 063 21.1
2020-Aug-12 23:28 063 21.1
2020-Aug-12 23:23 063 21.1
2020-Aug-12 23:18 063 21.1
2020-Aug-12 23:13 063 21.7
2020-Aug-12 23:08 063 21.7
2020-Aug-12 23:03 063 21.7
2020-Aug-12 22:58 063 21.7
2020-Aug-12 22:53 063 21.7
2020-Aug-12 22:48 063 22.2
2020-Aug-12 22:43 063 22.2
2020-Aug-12 22:38 063 22.2
2020-Aug-12 22:33 063 22.2
2020-Aug-12 22:28 063 22.2
2020-Aug-12 22:23 063 22.2
2020-Aug-12 22:18 063 22.8
2020-Aug-12 22:13 063 22.8
2020-Aug-12 22:08 063 22.8
2020-Aug-12 22:03 063 22.8
2020-Aug-12 21:58 063 22.8
2020-Aug-12 21:53 063 22.8
2020-Aug-12 21:48 063 22.8
2020-Aug-12 21:43 063 22.8
2020-Aug-12 21:38 063 23.3
2020-Aug-12 21:33 063 23.3
2020-Aug-12 21:28 063 23.3
2020-Aug-12 21:23 063 23.3
2020-Aug-12 21:18 063 23.3
2020-Aug-12 21:13 063 23.3
2020-Aug-12 21:08 063 23.3
2020-Aug-12 21:03 063 23.3
2020-Aug-12 20:58 063 23.3
2020-Aug-12 20:53 063 23.9
2020-Aug-12 20:48 063 23.9
2020-Aug-12 20:43 065 24.4
2020-Aug-12 20:38 065 23.9
2020-Aug-12 20:33 065 23.9
2020-Aug-12 20:28 065 23.9
2020-Aug-12 20:23 069 24.4
2020-Aug-12 20:18 298 25.0
2020-Aug-12 20:13 298 25.6
2020-Aug-12 20:08 299 25.6
2020-Aug-12 20:03 293 25.6
2020-Aug-12 19:58 293 25.6
2020-Aug-12 19:53 293 25.6
2020-Aug-12 19:48 293 25.6
2020-Aug-12 19:43 293 25.6
2020-Aug-12 19:38 301 25.6
2020-Aug-12 19:33 301 25.6
2020-Aug-12 19:28 301 25.6
2020-Aug-12 19:23 301 25.6
2020-Aug-12 19:18 301 26.1
2020-Aug-12 19:13 302 26.7
2020-Aug-12 19:08 302 26.7
2020-Aug-12 19:03 301 26.7
2020-Aug-12 18:58 301 26.7
2020-Aug-12 18:53 301 26.7
2020-Aug-12 18:48 298 27.2
2020-Aug-12 18:43 292 27.2
2020-Aug-12 18:38 262 27.2
2020-Aug-12 18:33 281 27.2
2020-Aug-12 18:28 259 27.8
2020-Aug-12 18:23 291 27.8
2020-Aug-12 18:18 290 27.8
2020-Aug-12 18:13 285 28.3
2020-Aug-12 18:08 288 28.3
2020-Aug-12 18:03 294 28.9
2020-Aug-12 17:58 296 28.9
2020-Aug-12 17:53 296 29.4
2020-Aug-12 17:48 303 29.4
2020-Aug-12 17:43 298 29.4
2020-Aug-12 17:38 305 30.0
2020-Aug-12 17:33 293 30.0
2020-Aug-12 17:28 296 30.0
2020-Aug-12 17:23 287 30.6
2020-Aug-12 17:18 298 30.6
2020-Aug-12 17:13 300 30.6
2020-Aug-12 17:08 301 31.1
2020-Aug-12 17:03 279 31.1
2020-Aug-12 16:58 321 31.1
2020-Aug-12 16:53 305 31.1
2020-Aug-12 16:48 288 31.7
2020-Aug-12 16:43 300 31.7
2020-Aug-12 16:38 355 31.7
2020-Aug-12 16:33 298 31.7
2020-Aug-12 16:28 321 31.7
2020-Aug-12 16:23 300 31.7
2020-Aug-12 16:18 275 31.7
2020-Aug-12 16:13 292 31.7
2020-Aug-12 16:08 318 31.7
2020-Aug-12 16:03 271 31.7
2020-Aug-12 15:58 289 32.2
2020-Aug-12 15:53 289 32.2
2020-Aug-12 15:48 289 32.2
2020-Aug-12 15:43 284 32.2
2020-Aug-12 15:38 262 32.8
2020-Aug-12 15:33 282 32.2
2020-Aug-12 15:28 292 2 gusting 11 32.8
2020-Aug-12 15:23 265 1 gusting 13 32.8
2020-Aug-12 15:18 257 32.8
2020-Aug-12 15:13 282 2 gusting 11 32.8
2020-Aug-12 15:08 273 11 gusting 11 32.8
2020-Aug-12 15:03 290 32.2
2020-Aug-12 14:58 240 5 gusting 8 32.2
2020-Aug-12 14:53 246 5 gusting 10 32.2
2020-Aug-12 14:48 259 1 gusting 11 32.8
2020-Aug-12 14:43 259 1 gusting 14 32.8
2020-Aug-12 14:38 264 8 gusting 12 33.3
2020-Aug-12 14:33 250 5 gusting 12 32.8
2020-Aug-12 14:28 263 2 gusting 12 33.3
2020-Aug-12 14:23 251 33.3
2020-Aug-12 14:18 265 6 gusting 12 33.3
2020-Aug-12 14:13 244 3 gusting 11 33.3
2020-Aug-12 14:08 261 6 gusting 13 33.3
2020-Aug-12 14:03 279 12 gusting 12 34.4
2020-Aug-12 13:58 246 33.9
2020-Aug-12 13:53 240 1 gusting 13 33.9
2020-Aug-12 13:48 261 6 gusting 11 33.9
2020-Aug-12 13:43 263 8 gusting 11 33.3
2020-Aug-12 13:38 232 33.3
2020-Aug-12 13:33 263 1 gusting 5 33.9
2020-Aug-12 13:28 229 2 gusting 11 33.9
2020-Aug-12 13:23 234 0 gusting 8 33.9
2020-Aug-12 13:18 271 34.4
2020-Aug-12 13:13 336 33.9
2020-Aug-12 13:08 308 33.9
2020-Aug-12 13:03 260 33.9
2020-Aug-12 12:58 267 33.3
2020-Aug-12 12:53 273 33.9
2020-Aug-12 12:48 309 33.3
2020-Aug-12 12:43 281 33.3
2020-Aug-12 12:38 088 33.3
2020-Aug-12 12:33 265 3 gusting 7 32.8
2020-Aug-12 12:28 264 32.8
2020-Aug-12 12:23 259 33.3
2020-Aug-12 12:18 275 0 gusting 6 32.8
2020-Aug-12 12:13 240 32.2
2020-Aug-12 12:09 277 0 gusting 8 32.2
2020-Aug-12 12:03 281 32.2
2020-Aug-12 11:58 263 7 gusting 7 32.2
2020-Aug-12 11:53 265 1 gusting 6 32.2
2020-Aug-12 11:48 258 0 gusting 5 32.2
2020-Aug-12 11:43 238 32.2
2020-Aug-12 11:38 259 31.7
2020-Aug-12 11:33 232 31.7
2020-Aug-12 11:28 267 31.7
2020-Aug-12 11:23 279 31.7
2020-Aug-12 11:18 253 31.7
2020-Aug-12 11:13 247 31.1
2020-Aug-12 11:08 236 31.7
2020-Aug-12 11:03 271 0 gusting 7 31.7
2020-Aug-12 10:58 248 31.1
2020-Aug-12 10:53 210 31.7
2020-Aug-12 10:48 222 31.7
2020-Aug-12 10:43 221 31.1
2020-Aug-12 10:38 243 31.7
2020-Aug-12 10:33 257 31.7
2020-Aug-12 10:28 310 31.7
2020-Aug-12 10:23 255 31.1
2020-Aug-12 10:18 261 5 gusting 7 31.1
2020-Aug-12 10:13 248 31.7
2020-Aug-12 10:08 282 31.7
2020-Aug-12 10:03 271 32.2
2020-Aug-12 09:58 148 32.2
2020-Aug-12 09:53 139 32.2
2020-Aug-12 09:48 185 31.7
2020-Aug-12 09:43 234 31.7
2020-Aug-12 09:38 128 31.7
2020-Aug-12 09:33 167 31.7
2020-Aug-12 09:28 141 31.7
2020-Aug-12 09:23 275 32.2
2020-Aug-12 09:18 318 31.7
2020-Aug-12 09:13 313 31.1
2020-Aug-12 09:08 115 31.1
2020-Aug-12 09:03 117 31.1
2020-Aug-12 08:58 186 31.1
2020-Aug-12 08:53 187 30.6
2020-Aug-12 08:48 163 30.0
2020-Aug-12 08:43 283 30.0
2020-Aug-12 08:38 202 30.0
2020-Aug-12 08:33 156 29.4
2020-Aug-12 08:28 089 29.4
2020-Aug-12 08:23 085 29.4
2020-Aug-12 08:18 139 28.9
2020-Aug-12 08:13 092 28.9
2020-Aug-12 08:08 094 28.9
2020-Aug-12 08:03 206 28.3
2020-Aug-12 07:58 159 28.3
2020-Aug-12 07:53 128 28.3
2020-Aug-12 07:48 224 28.3
2020-Aug-12 07:43 140 27.8
2020-Aug-12 07:38 176 27.8
2020-Aug-12 07:33 178 27.8
2020-Aug-12 07:28 146 27.8
2020-Aug-12 07:23 094 27.2
2020-Aug-12 07:18 084 26.7
2020-Aug-12 07:13 094 26.7
2020-Aug-12 07:08 097 26.1
2020-Aug-12 07:03 097 26.1
2020-Aug-12 06:58 098 26.1
2020-Aug-12 06:53 098 26.1
2020-Aug-12 06:48 094 26.1
2020-Aug-12 06:43 065 26.1
2020-Aug-12 06:38 009 26.1
2020-Aug-12 06:33 009 25.6
2020-Aug-12 06:28 005 25.0
2020-Aug-12 06:23 322 24.4
2020-Aug-12 06:18 321 24.4
2020-Aug-12 06:13 317 23.3
2020-Aug-12 06:08 317 22.8
2020-Aug-12 06:03 317 22.2
2020-Aug-12 05:58 317 21.7
2020-Aug-12 05:53 317 21.7
2020-Aug-12 05:48 317 21.1
2020-Aug-12 05:43 317 21.1
2020-Aug-12 05:38 317 20.6
2020-Aug-12 05:33 317 20.6
2020-Aug-12 05:28 317 20.6
2020-Aug-12 05:23 317 20.6
2020-Aug-12 05:18 317 20.6
2020-Aug-12 05:13 317 20.6
2020-Aug-12 05:08 317 20.0
2020-Aug-12 05:03 317 19.4
2020-Aug-12 04:58 317 19.4
2020-Aug-12 04:53 317 19.4
2020-Aug-12 04:48 317 19.4
2020-Aug-12 04:43 317 19.4
2020-Aug-12 04:38 317 19.4
2020-Aug-12 04:33 317 18.9
2020-Aug-12 04:28 317 18.9
2020-Aug-12 04:23 317 18.9
2020-Aug-12 04:18 317 19.4
2020-Aug-12 04:13 317 19.4
2020-Aug-12 04:08 317 19.4
2020-Aug-12 04:03 317 19.4
2020-Aug-12 03:58 318 19.4
2020-Aug-12 03:53 318 19.4
2020-Aug-12 03:48 317 19.4
2020-Aug-12 03:43 317 19.4
2020-Aug-12 03:38 317 19.4
2020-Aug-12 03:33 317 20.0
2020-Aug-12 03:28 317 20.0
2020-Aug-12 03:23 317 20.0
2020-Aug-12 03:18 317 20.0
2020-Aug-12 03:13 317 20.0
2020-Aug-12 03:08 317 20.0
2020-Aug-12 03:03 317 20.0
2020-Aug-12 02:58 317 20.0
2020-Aug-12 02:53 317 20.0
2020-Aug-12 02:48 317 20.0
2020-Aug-12 02:43 317 20.0
2020-Aug-12 02:38 317 20.0
2020-Aug-12 02:33 317 20.0
2020-Aug-12 02:28 317 20.6
2020-Aug-12 02:23 317 20.6
2020-Aug-12 02:18 317 20.6
2020-Aug-12 02:13 317 20.6
2020-Aug-12 02:08 317 20.6
2020-Aug-12 02:03 317 20.6
2020-Aug-12 01:58 317 20.6
2020-Aug-12 01:53 317 20.6
2020-Aug-12 01:48 317 20.6
2020-Aug-12 01:43 317 20.6
2020-Aug-12 01:38 317 20.6
2020-Aug-12 01:33 317 21.1
2020-Aug-12 01:28 317 21.1
2020-Aug-12 01:23 317 21.1
2020-Aug-12 01:18 317 21.1
2020-Aug-12 01:13 317 21.1
2020-Aug-12 01:08 317 21.1
2020-Aug-12 01:03 317 21.7
2020-Aug-12 00:58 317 21.7
2020-Aug-12 00:53 317 21.7
2020-Aug-12 00:48 317 21.7
2020-Aug-12 00:43 317 21.7
2020-Aug-12 00:38 317 21.7
2020-Aug-12 00:33 317 21.7
2020-Aug-12 00:28 317 21.7
2020-Aug-12 00:23 317 21.7
2020-Aug-12 00:18 317 21.7
2020-Aug-12 00:13 317 21.7
2020-Aug-12 00:08 317 21.7
2020-Aug-12 00:03 317 21.7
2020-Aug-11 23:58 317 21.7
2020-Aug-11 23:53 317 21.7
2020-Aug-11 23:48 317 22.2
2020-Aug-11 23:43 317 22.2
2020-Aug-11 23:38 317 22.2
2020-Aug-11 23:33 317 22.2
2020-Aug-11 23:28 317 22.2
2020-Aug-11 23:23 317 22.2
2020-Aug-11 23:18 317 22.8
2020-Aug-11 23:13 317 22.8
2020-Aug-11 23:08 317 22.8
2020-Aug-11 23:03 317 22.8
2020-Aug-11 22:58 317 22.8
2020-Aug-11 22:53 317 22.8
2020-Aug-11 22:48 317 23.3
2020-Aug-11 22:43 317 23.3
2020-Aug-11 22:38 318 23.3
2020-Aug-11 22:33 317 23.3
2020-Aug-11 22:28 318 23.3
2020-Aug-11 22:23 318 23.3
2020-Aug-11 22:18 317 23.3
2020-Aug-11 22:13 318 23.3
2020-Aug-11 22:03 313 23.9
2020-Aug-11 21:58 307 23.9
2020-Aug-11 21:53 307 23.9
2020-Aug-11 21:48 307 24.4
2020-Aug-11 21:43 296 24.4
2020-Aug-11 21:38 274 24.4
2020-Aug-11 21:33 274 24.4
2020-Aug-11 21:28 282 24.4
2020-Aug-11 21:23 282 25.0
2020-Aug-11 21:18 275 25.0
2020-Aug-11 21:13 275 25.0
2020-Aug-11 21:08 275 25.0
2020-Aug-11 21:03 275 25.0
2020-Aug-11 20:58 275 25.0
2020-Aug-11 20:53 275 25.0
2020-Aug-11 20:48 275 25.0
2020-Aug-11 20:43 275 25.6
2020-Aug-11 20:38 275 25.6
2020-Aug-11 20:33 275 25.6
2020-Aug-11 20:28 275 25.6
2020-Aug-11 20:23 275 25.6
2020-Aug-11 20:18 275 26.1
2020-Aug-11 20:13 275 26.1
2020-Aug-11 20:08 275 26.1
2020-Aug-11 20:03 275 26.1
2020-Aug-11 19:58 275 26.1
2020-Aug-11 19:53 275 26.7
2020-Aug-11 19:48 275 26.7
2020-Aug-11 19:43 275 26.7
2020-Aug-11 19:38 267 26.7
2020-Aug-11 19:33 259 27.2
2020-Aug-11 19:28 259 27.2
2020-Aug-11 19:23 259 27.2
2020-Aug-11 19:18 259 27.2
2020-Aug-11 19:13 259 27.8
2020-Aug-11 19:08 259 27.8
2020-Aug-11 19:03 290 27.8
2020-Aug-11 18:58 290 27.8
2020-Aug-11 18:53 279 27.8
2020-Aug-11 18:48 261 27.8
2020-Aug-11 18:43 261 28.3
2020-Aug-11 18:38 261 28.3
2020-Aug-11 18:33 258 28.3
2020-Aug-11 18:28 258 28.3
2020-Aug-11 18:23 253 28.3
2020-Aug-11 18:18 253 28.9
2020-Aug-11 18:13 250 28.9
2020-Aug-11 18:08 250 28.9
2020-Aug-11 18:03 251 28.9